This demonstration page uses our WeatherBlox Daily Observations layout. Learn more.

Left ArrowRight Arrow

39.08367, -84.50855

Hourly Observations for April 25, 2015

Temp ( °F °C ) Dew Point ( °F °C ) Humidity (%) Winds ( mph kmh ) Pressure ( in mb ) Visibility ( mi km ) Precip ( " mm )
12:53 am 00:53 Cloudy 54 12.2 37 2.8 53 53 Calm 29.9 1013 10 16.0934 0 0.0254
1:53 am 01:53 Cloudy 52 11.1 40 4.4 64 64 Calm 29.9 1013 10 16.0934 0 0
2:53 am 02:53 Cloudy 49 9.4 45 7.2 86 86 Calm 29.89 1012 10 16.0934 0 0.0254
3:53 am 03:53 Cloudy 49 9.4 46 7.8 90 90 Calm 29.88 1012 10 16.0934 0 0
4:53 am 04:53 Cloudy with Light Rain 50 10 46 7.8 86 86 Calm 29.87 1012 10 16.0934 0 0.0254
5:53 am 05:53 Cloudy 47 8.3 45 7.2 93 93 ESE 3 6 29.84 1010 10 16.0934 0.01 0.254
6:53 am 06:53 Cloudy 49 9.4 42 5.6 77 77 NNE 6 9 29.82 1010 10 16.0934 0 0
7:53 am 07:53 Cloudy 48 8.9 45 7.2 89 89 Calm 29.84 1010 10 16.0934 0 0
8:53 am 08:53 Cloudy 48 8.9 41 5 77 77 ESE 7 11 29.8 1009 10 16.0934 0 0
9:53 am 09:53 Cloudy 50 10 42 5.6 74 74 Calm 29.78 1008 10 16.0934 0 0
10:53 am 10:53 Cloudy with Rain 49 9.4 43 6.1 80 80 E 6 9 29.75 1007 4 6.43736 0.03 0.762
11:53 am 11:53 Cloudy with Light Rain 49 9.4 46 7.8 90 90 ESE 5 7 29.75 1008 4 6.43736 0.03 0.762
12:01 pm 12:01 Cloudy with Light Rain 49 9.4 46 7.8 90 90 E 5 7 29.77 1008 5 8.0467 0.01 0.254
12:08 pm 12:08 Cloudy with Light Rain 48 9 46 8 94 94 E 7 11 29.77 1008 4 6.43736 0 0
12:49 pm 12:49 Cloudy with Heavy Rain 48 9 46 8 94 94 E 7 11 29.74 1007 2.5 4.02335 0.06 1.524
12:53 pm 12:53 Cloudy with Heavy Rain 49 9.4 47 8.3 93 93 ENE 8 13 29.71 1006 3 4.82802 0.08 2.032
1:18 pm 13:18 Cloudy with Rain 48 9 46 8 94 94 ENE 7 11 29.74 1007 3 4.82802 0 0
1:53 pm 13:53 Cloudy with Rain 47 8.3 46 7.8 97 97 NE 9 15 29.69 1005 3 4.82802 0.18 4.572
2:53 pm 14:53 Cloudy with Light Rain 46 7.8 44 6.7 93 93 NE 12 19 29.67 1005 3 4.82802 0.03 0.762
3:53 pm 15:53 Cloudy with Light Rain 45 7 43 6 93 93 NNE 14 22 29.71 1006 3 4.82802 0 0
3:55 pm 15:55 Cloudy with Nearby Thunderstorms 44 6.7 42 5.6 93 93 NE 15 24 29.71 1006 3 4.82802 0 0.0254
4:13 pm 16:13 Cloudy with Nearby Thunderstorms 44 6.7 43 6.1 96 96 N 9 15 29.74 1007 2 3.21868 0.06 1.524
4:27 pm 16:27 Cloudy with Light Rain 44 6.7 42 5.6 93 93 NNE 13 20 29.74 1007 2 3.21868 0.07 1.778
4:29 pm 16:29 Cloudy with Light Rain 44 6.7 42 5.6 93 93 NNE 12 19 29.74 1007 5 8.0467 0.07 1.778
4:53 pm 16:53 Cloudy with Light Rain 45 7.2 43 6.1 93 93 ENE 15 24 29.67 1005 10 16.0934 0.07 1.778
5:14 pm 17:14 Cloudy with Light Thunderstorms 45 7 43 6 93 93 NE 10 17 29.71 1006 10 16.0934 0 0
5:35 pm 17:35 Cloudy with Light Rain 45 7.2 43 6.1 93 93 NE 10 17 29.71 1006 10 16.0934 0.01 0.254
5:53 pm 17:53 Cloudy with Light Rain 44 6.7 42 5.6 93 93 NE 10 17 29.68 1005 10 16.0934 0.01 0.254
6:00 pm 18:00 Cloudy with Light Rain 45 7 43 6 93 93 NE 10 17 29.71 1006 10 16.0934 0 0
6:53 pm 18:53 Cloudy 46 7.8 44 6.7 93 93 NE 8 13 29.66 1004 10 16.0934 0 0.0254
7:31 pm 19:31 Cloudy 46 7.8 43 6.1 89 89 NE 7 11 29.68 1005 10 16.0934 0 0
7:41 pm 19:41 Cloudy 46 7.8 43 6.1 89 89 NE 9 15 29.68 1005 10 16.0934 0 0
7:53 pm 19:53 Cloudy 46 7.8 43 6.1 89 89 ENE 13 20 29.65 1004 10 16.0934 0 0
8:21 pm 20:21 Cloudy 45 7.2 43 6.1 93 93 ENE 10 17 29.68 1005 10 16.0934 0 0
8:53 pm 20:53 Cloudy 46 7.8 42 5.6 86 86 ENE 10 17 29.64 1004 10 16.0934 0 0
9:22 pm 21:22 Cloudy 46 8 43 6 87 87 ENE 9 15 29.68 1005 10 16.0934 0 0
9:53 pm 21:53 Cloudy 46 7.8 42 5.6 86 86 NE 8 13 29.66 1005 10 16.0934 0 0
10:29 pm 22:29 Cloudy 46 7.8 42 5.6 86 86 NNE 13 20 29.68 1005 10 16.0934 0 0.0254
10:53 pm 22:53 Cloudy 46 7.8 41 5 83 83 NE 13 20 29.67 1005 10 16.0934 0 0.0254
11:53 pm 23:53 Cloudy 46 7.8 40 4.4 79 79 NNE 13 20 29.68 1005 10 16.0934 0 0

Powered by AerisWeather